Weather History for Hailey, ID

Change the Weather History Date:

Wednesday, April 24, 2013

  Actual Average Record
Temperature  
Mean Temperature 46 °F -  
Max Temperature 64 °F 57 °F 73 °F (2012)
Min Temperature 28 °F 32 °F 23 °F (2002)
Degree Days  
Heating Degree Days 19    
Moisture  
Dew Point 19 °F    
Average Humidity 46    
Maximum Humidity 60    
Minimum Humidity 18    
Precipitation  
Precipitation 0.00 in - - ()
Sea Level Pressure  
Sea Level Pressure 30.19 in    
Wind  
Wind Speed 9 mph (WNW)    
Max Wind Speed 17 mph    
Max Gust Speed 20 mph    
Visibility 10 miles    
Events      
Averages and records for this station are not official NWS values.
T = Trace of Precipitation, MM = Missing Value Source: NWS Daily Summary

Daily Weather History Graph

Daily Weather History Graph

Search for Another Location

Airport:

Trip Planner

Search our weather history database for the weather conditions in past years. The results will help you decide how hot, cold, wet, or windy it might be!

Date:

Astronomy

Apr. 24, 2013 Rise Set
Actual Time 6:39 AM MDT 8:31 PM MDT
Civil Twilight 6:09 AM MDT 9:02 PM MDT
Nautical Twilight 5:31 AM MDT 9:39 PM MDT
Astronomical Twilight 4:51 AM MDT 10:20 PM MDT
Moon 7:38 PM MDT (4/24) 5:48 AM MDT (4/24)
Length of Visible Light 14h 53m
Length of Day
13h 51m
Waxing Gibbous, 98% of the Moon is Illuminated
Apr 24
Waxing Gibbous
Apr 25
Full
May 2
Last Quarter
May 9
New
May 17
First Quarter

Hourly Weather History & Observations

Time (MDT) Temp. Windchill Dew Point Humidity Pressure Visibility Wind Dir Wind Speed Gust Speed Precip Events Conditions
12:15 AM 35.6 °F 28.6 °F 19.4 °F 52% 30.15 in 10.0 mi NW 9.2 mph - N/A   Clear
12:35 AM 35.6 °F 28.0 °F 19.4 °F 52% 30.16 in 10.0 mi NW 10.4 mph - N/A   Clear
12:55 AM 33.8 °F 25.8 °F 19.4 °F 56% 30.17 in 10.0 mi NW 10.4 mph - N/A   Clear
1:15 AM 33.8 °F 27.0 °F 19.4 °F 56% 30.17 in 10.0 mi North 8.1 mph - N/A   Clear
1:35 AM 33.8 °F 27.0 °F 17.6 °F 52% 30.17 in 10.0 mi NW 8.1 mph - N/A   Clear
1:55 AM 33.8 °F 27.7 °F 17.6 °F 52% 30.17 in 10.0 mi NW 6.9 mph - N/A   Clear
2:15 AM 32.0 °F 24.8 °F 19.4 °F 60% 30.17 in 10.0 mi WNW 8.1 mph - N/A   Clear
2:35 AM 32.0 °F 24.2 °F 17.6 °F 55% 30.18 in 10.0 mi WNW 9.2 mph - N/A   Clear
2:55 AM 32.0 °F 23.6 °F 17.6 °F 55% 30.18 in 10.0 mi WNW 10.4 mph - N/A   Clear
3:15 AM 32.0 °F 24.2 °F 17.6 °F 55% 30.18 in 10.0 mi WNW 9.2 mph - N/A   Clear
3:35 AM 32.0 °F 24.2 °F 17.6 °F 55% 30.18 in 10.0 mi WNW 9.2 mph - N/A   Clear
3:55 AM 32.0 °F 24.2 °F 17.6 °F 55% 30.18 in 10.0 mi WNW 9.2 mph - N/A   Clear
4:15 AM 32.0 °F 24.2 °F 17.6 °F 55% 30.19 in 10.0 mi WNW 9.2 mph - N/A   Clear
4:35 AM 32.0 °F 23.6 °F 17.6 °F 55% 30.19 in 10.0 mi WNW 10.4 mph - N/A   Clear
4:55 AM 32.0 °F 24.2 °F 17.6 °F 55% 30.20 in 10.0 mi WNW 9.2 mph - N/A   Clear
5:15 AM 32.0 °F 26.4 °F 17.6 °F 55% 30.20 in 10.0 mi NW 5.8 mph - N/A   Clear
5:35 AM 32.0 °F 23.6 °F 17.6 °F 55% 30.21 in 10.0 mi NW 10.4 mph - N/A   Clear
5:55 AM 32.0 °F 23.0 °F 17.6 °F 55% 30.22 in 10.0 mi WNW 11.5 mph 16.1 mph N/A   Clear
6:15 AM 32.0 °F 24.8 °F 17.6 °F 55% 30.23 in 10.0 mi NW 8.1 mph - N/A   Clear
6:35 AM 30.2 °F 22.6 °F 15.8 °F 55% 30.22 in 10.0 mi NNW 8.1 mph - N/A   Clear
6:47 AM 28.4 °F 19.7 °F 15.8 °F 59% 30.24 in 10.0 mi NW 9.2 mph - N/A   Clear
6:55 AM 30.2 °F 20.8 °F 17.6 °F 60% 30.24 in 10.0 mi NW 11.5 mph - N/A   Clear
7:47 AM 30.2 °F 22.6 °F 15.8 °F 55% 30.25 in 10.0 mi WNW 8.1 mph - N/A   Clear
8:47 AM 35.6 °F 28.6 °F 15.8 °F 44% 30.28 in 10.0 mi WNW 9.2 mph - N/A   Clear
9:53 AM 41.0 °F 39.0 °F 15.8 °F 36% 30.28 in 10.0 mi NW 3.5 mph - N/A   Clear
10:47 AM 44.6 °F 40.7 °F 15.8 °F 31% 30.28 in 10.0 mi East 6.9 mph - N/A   Clear
11:47 AM 46.4 °F 39.5 °F 19.4 °F 34% 30.27 in 10.0 mi SE 17.3 mph - N/A   Clear
12:55 PM 48.2 °F - 19.4 °F 32% 30.26 in 10.0 mi SE 17.3 mph - N/A   Clear
1:47 PM 50.0 °F - 19.4 °F 30% 30.22 in 10.0 mi South 9.2 mph - N/A   Clear
2:47 PM 53.6 °F - 19.4 °F 26% 30.22 in 10.0 mi SSW 11.5 mph - N/A   Clear
3:50 PM 53.6 °F - 19.4 °F 26% 30.19 in 10.0 mi SE 4.6 mph 19.6 mph N/A   Clear
4:47 PM 64.4 °F - 19.4 °F 18% 30.17 in 10.0 mi South 6.9 mph - N/A   Clear
5:47 PM 55.4 °F - 21.2 °F 26% 30.15 in 10.0 mi SE 9.2 mph - N/A   Clear
6:47 PM 55.4 °F - 21.2 °F 26% 30.14 in 10.0 mi SSE 4.6 mph - N/A   Clear
7:47 PM 51.8 °F - 21.2 °F 30% 30.12 in 10.0 mi ESE 6.9 mph - N/A   Clear
8:50 PM 44.6 °F 42.2 °F 23.0 °F 43% 30.13 in 10.0 mi SE 4.6 mph - N/A   Clear
9:50 PM 44.6 °F 42.2 °F 19.4 °F 37% 30.14 in 10.0 mi SE 4.6 mph - N/A   Clear
10:47 PM 41.0 °F 39.0 °F 19.4 °F 42% 30.14 in 10.0 mi WNW 3.5 mph - N/A   Clear
11:15 PM 41.0 °F 36.4 °F 21.2 °F 45% 30.13 in 10.0 mi NW 6.9 mph - N/A   Clear
11:35 PM 37.4 °F 32.1 °F 21.2 °F 52% 30.13 in 10.0 mi WNW 6.9 mph - N/A   Clear
11:55 PM 37.4 °F 31.4 °F 21.2 °F 52% 30.13 in 10.0 mi NW 8.1 mph - N/A   Clear